Regional Weather Roundup
Issued by NWS Newport/Morehead, NC

Current Version | Previous Version | Graphics & Text | Print | Product List | Glossary Off
Versions: 1 2 3 4 5 6 7 8 9 10 11 12 13 14 15 16 17 18 19 20 21 22 23 24 25 26 27 28 29 30 31 32 33 34 35 36 37 38 39 40 41 42 43 44 45 46 47 48 49 50

000
ASUS42 KMHX 242310
RWRMHX
WEATHER ROUNDUP FOR EASTERN NORTH CAROLINA
NATIONAL WEATHER SERVICE NEWPORT/MOREHEAD CITY NC
700 PM EDT FRI OCT 24 2014

NOTE: "FAIR" INDICATES FEW OR NO CLOUDS BELOW 12,000 FEET
WITH NO SIGNIFICANT WEATHER AND/OR OBSTRUCTIONS TO VISIBILITY

NCZ015>017-031-032-045>047-102-103-250000-
NORTH COAST

CITY           SKY/WX    TMP DP  RH WIND       PRES   REMARKS
EDENTON        MOCLDY    60  51  71 CALM      29.94S
ELIZABETH CITY PTCLDY    59  47  64 SW6       29.94R
KITTY HAWK     CLEAR     60  53  78 NW3       29.92R
MANTEO         CLEAR     61  52  71 W5        29.93R

$$

NCZ045>047-081-094-103-104-250000-
CENTRAL COAST

CITY           SKY/WX    TMP DP  RH WIND       PRES   REMARKS
FRISCO         CLEAR     61  53  75 W6        29.94R
SWANQUARTER      N/A     61 N/A N/A W5        29.91S

$$

NCZ095-097-098-100-101-250000-
SOUTHERN COAST

CITY           SKY/WX    TMP DP  RH WIND       PRES   REMARKS
BEAUFORT       CLEAR     62  52  69 W6        29.95S
CEDAR ISLAND     N/A     63 N/A N/A W5        29.97S
JACKSONVILLE   CLEAR     58  53  84 SW5       29.96R
PINEY ISLAND   CLEAR     65  54  67 W5        29.95R
WILMINGTON     CLEAR     61  52  72 S5        29.97R


$$

NCZ011>013-027>030-043-044-078>080-089-090>093-098-250000-
COASTAL PLAIN

CITY           SKY/WX    TMP DP  RH WIND       PRES   REMARKS
AHOSKIE        MOCLDY    56  49  77 CALM      29.96R
CLINTON        MOCLDY    58  54  87 CALM      29.98S
ELIZABETHTOWN  PTCLDY    60  51  70 CALM      29.97S
GOLDSBORO      MOCLDY    62  54  76 SW2       29.95R
GREENVILLE     PTCLDY    55  52  88 CALM      29.98R
HAVELOCK       CLEAR     58  50  75 W5        29.96S
KENANSVILLE    CLEAR     55  51  85 CALM      29.98R
KINSTON        CLEAR     55  52  88 CALM      29.97R
NEW BERN       PTCLDY    60  52  74 CALM      29.96S
RICHLANDS      CLEAR     57  50  77 CALM      29.98R
ROCKY MOUNT    PTCLDY    54  51  90 CALM      29.97R
WASHINGTON     PTCLDY    58  52  80 CALM      29.96R
WHITEVILLE     PTCLDY    60  52  75 CALM      29.97R

$$

AMZ130-135-150-152-154-156-158-170-250-252-270-ANZ085-086-088-633-658-670-250000-
MARINE OBSERVATIONS

STATION/POSITION TIME  TEMP    WIND        PRES    WAVE   SWELL
                       AIR SEA DIR/SP/G            HT/PER HT/PER
                 (UTC) (F)     (DEG/KT/KT) (MB)    (FT/S) (FT/S)
CHESAPEAKE LIGHT 2200   64     300/ 13/ 14 1013.5
64 E VA BEACH    2300   64 67  320/ 17/ 19 1012.1    5/ 9   3/ 9
DUCK             2300   63 66  260/  4/  5 1012.6
2 E DUCK         2300                        N/A     3/ 6   2/11
10 NE DUCK       2300      67                N/A     4/ 7   2/11
OREGON INLET     2300   62 64  280/  5/  7 1013.2
13E OREGON INLT  2300      69                N/A     5/ 7   2/11
HATTERAS CG      2300   65 65  290/ 10/ 12 1014.0
DIAMOND BUOY     2300   65     300/ 14/ 17 1013.7    4/ 9   2/ 9
17 S OCRACOKE    2200          VRB 14/ 16  1013.6
CAPE LOOKOUT     2200   66     270/  7/  8 1014.1
BEAUFORT LAB     2300   65 67  280/  1/  4 1013.6
30 SE NEW RIVER  2300   67 75  290/  8/ 10 1014.4    3/10   3/10
5 SE WRIGHTSVLE  2300   63 72  250/  6/  8   N/A
225 S CAPE HAT   2225   72 77  350/  6/ 10 1014.0    5/ 9   5/ 9
41 SE CHARLESTON 2300   69 78  330/  6/  8 1014.7    3/10   3/10

$$



USA.gov is the U.S. government's official web portal to all federal, state and local government web resources and services.